Location: La Coruña
(43.3623°N, 8.4115°W)
Time: 16:27:11
(UTC+01:00)

STARLINK-1069 - Pass Details

Date: 18 January 2020
Orbit: 349 x 351 km, 53.0° (Epoch: 18 February)

Event Time Altitude Azimuth Distance (km) Brightness Sun altitude
Rises 20:12:31 0° 260° (W) 2,158 8.4 -19.0°
Reaches altitude 10° 20:14:41 10° 273° (W) 1,318 6.7 -19.4°
Maximum altitude 20:17:17 28° 335° (NNW) 703 4.3 -19.8°
Enters shadow 20:17:18 28° 336° (NNW) 703 4.3 -19.8°
